Date,TemperatureHighF,TemperatureAvgF,TemperatureLowF,DewpointHighF,DewpointAvgF,DewpointLowF,HumidityHigh,HumidityAvg,HumidityLow,PressureMaxIn,PressureMinIn,WindSpeedMaxMPH,WindSpeedAvgMPH,GustSpeedMaxMPH,PrecipitationSumIn
2013-2-1,25.4,7.6,-5.1,14.5,-3.6,-13.3,69,60,46,30.53,30.12,17,5,17,0.00
2013-2-2,32.6,21.5,16.0,25.2,12.4,4.7,81,68,54,30.28,30.05,17,5,17,0.00
2013-2-3,34.5,26.6,17.0,24.8,14.2,9.2,74,60,40,30.26,29.84,28,7,28,0.00
2013-2-4,36.0,25.1,19.9,24.4,16.5,12.5,75,69,62,30.09,29.79,17,4,17,0.00
2013-2-5,45.2,32.1,22.2,31.6,23.5,14.9,81,71,56,30.16,29.86,18,4,18,0.00
2013-2-6,45.9,36.0,23.8,31.5,26.7,19.1,83,70,55,30.17,29.95,17,5,17,0.00
2013-2-7,41.5,34.0,27.9,34.6,28.2,21.9,89,79,63,30.27,29.91,17,5,17,0.00
2013-2-8,30.6,27.4,24.0,22.2,20.5,17.8,78,75,69,30.43,30.27,17,5,17,0.00
2013-2-9,37.8,31.9,27.5,28.9,25.2,21.3,82,76,69,30.32,29.87,22,9,22,0.00
2013-2-10,51.9,38.2,32.5,43.3,31.1,21.0,86,76,54,29.87,29.29,26,12,26,0.00
2013-2-11,32.4,30.2,27.9,21.6,19.6,18.2,69,64,61,30.19,29.64,33,13,33,0.00
2013-2-12,45.3,34.1,21.3,24.0,21.0,15.1,81,60,39,30.21,29.91,13,3,13,0.00
2013-2-13,52.0,38.5,26.7,28.0,24.1,19.4,75,58,34,29.92,29.72,13,4,13,0.00
2013-2-14,42.1,35.7,24.0,27.9,24.2,10.2,72,63,47,30.25,29.74,24,9,24,0.00
2013-2-15,27.7,22.0,16.7,11.4,8.7,5.1,71,57,44,30.41,30.25,16,5,16,0.00
2013-2-16,37.0,23.9,10.7,14.8,10.7,4.6,77,59,35,30.39,30.15,12,2,12,0.00
2013-2-17,47.8,34.2,20.8,23.3,18.5,12.8,74,54,34,30.15,29.68,23,8,23,0.00
2013-2-18,42.9,31.0,16.8,30.9,20.2,4.7,77,64,55,30.00,29.59,28,9,28,0.00
2013-2-19,22.5,15.9,7.8,5.7,0.9,-3.1,66,52,38,30.48,30.00,26,13,26,0.00
2013-2-20,23.9,14.1,1.2,7.2,-1.5,-7.8,66,51,35,30.55,30.38,12,3,12,0.00
2013-2-21,25.8,22.0,18.5,19.3,12.7,7.1,82,68,52,30.40,29.90,22,7,22,0.00
2013-2-22,26.2,23.8,22.1,19.7,17.5,13.7,82,77,70,30.06,29.84,17,5,17,0.00
2013-2-23,34.4,24.3,12.2,18.9,14.2,6.4,78,66,50,30.06,29.97,12,2,12,0.00
2013-2-24,45.7,30.4,15.9,26.2,19.6,10.3,79,65,42,30.12,30.00,7,1,7,0.00
2013-2-25,40.9,34.5,28.3,27.3,24.7,22.1,79,68,51,30.14,29.94,10,2,10,0.00
2013-2-26,32.1,30.8,28.4,27.6,25.4,22.5,85,80,71,29.94,29.76,21,8,21,0.00
2013-2-27,31.2,27.9,24.7,24.2,22.5,17.9,84,80,70,30.06,29.84,17,6,17,0.00
2013-2-28,31.7,26.9,22.4,23.0,19.6,15.7,81,74,66,30.24,30.06,15,6,15,0.00